This is the latest recevied weather packets stored in our database for station/object IR3AS. If no packets are shown the sender has not sent any weather packets the latest 10 day(s).
| Time | Temp. | Humidity | Pressure | Rain* | Wind** | Luminosity | Snow |
|---|---|---|---|---|---|---|---|
| 1787573108 | 16.11° C | 74% | 868.8 hPa | 0 mm | - | - | - |
| 1787572809 | 15.56° C | 74% | 868.8 hPa | 0 mm | - | - | - |
| 1787572509 | 15.56° C | 74% | 868.7 hPa | 0 mm | - | - | - |
| 1787572208 | 15.56° C | 74% | 868.6 hPa | 0 mm | - | - | - |
| 1787571908 | 15.56° C | 74% | 868.7 hPa | 0 mm | - | - | - |
| 1787571610 | 16.11° C | 74% | 868.5 hPa | 0 mm | - | - | - |
| 1787571308 | 16.11° C | 74% | 868.6 hPa | 0 mm | - | - | - |
| 1787571008 | 16.11° C | 74% | 868.6 hPa | 0 mm | - | - | - |
| 1787570708 | 16.11° C | 73% | 868.4 hPa | 0 mm | - | - | - |
| 1787570408 | 16.67° C | 73% | 868.4 hPa | 0 mm | - | - | - |
| 1787570109 | 16.67° C | 72% | 868.7 hPa | 0 mm | - | - | - |
| 1787569811 | 17.22° C | 72% | 868.7 hPa | 0 mm | - | - | - |
| 1787569509 | 17.22° C | 72% | 868.8 hPa | 0 mm | - | - | - |
| 1787569209 | 16.67° C | 72% | 868.6 hPa | 0 mm | - | - | - |
| 1787568909 | 16.67° C | 72% | 868.9 hPa | 0 mm | - | - | - |
| 1787568611 | 17.22° C | 72% | 868.7 hPa | 0 mm | - | - | - |
| 1787568309 | 16.67° C | 72% | 869 hPa | 0 mm | - | - | - |
| 1787568009 | 16.67° C | 72% | 868.9 hPa | 0 mm | - | - | - |
| 1787567709 | 16.67° C | 74% | 868.4 hPa | 0 mm | - | - | - |
| 1787567409 | 16.11° C | 74% | 868.6 hPa | 0 mm | - | - | - |
| 1787567109 | 16.11° C | 73% | 868.5 hPa | 0 mm | - | - | - |
| 1787566809 | 16.11° C | 74% | 868.3 hPa | 0 mm | - | - | - |
| 1787566510 | 16.11° C | 75% | 868.2 hPa | 0 mm | - | - | - |
| 1787566209 | 15.56° C | 75% | 867.9 hPa | 0 mm | - | - | - |
| 1787565909 | 15.56° C | 75% | 867.8 hPa | 0 mm | - | - | - |
* Rain latest hour (hover to see other rain measurements)
** Current wind speed in m/s (hover to see current wind gust speed)